Year,Month,Day,Hour,Minute,Value (Times are PST for temperature in C)
2021,06,26,00,00,22.50
2021,06,26,00,01,22.40
2021,06,26,00,02,22.40
2021,06,26,00,03,22.40
2021,06,26,00,04,22.40
2021,06,26,00,05,22.30
2021,06,26,00,06,22.30
2021,06,26,00,07,22.30
2021,06,26,00,08,22.30
2021,06,26,00,09,22.30
2021,06,26,00,10,22.30
2021,06,26,00,11,22.30
2021,06,26,00,12,22.30
2021,06,26,00,13,22.20
2021,06,26,00,14,22.20
2021,06,26,00,15,22.20
2021,06,26,00,16,22.20
2021,06,26,00,17,22.20
2021,06,26,00,18,22.20
2021,06,26,00,19,22.20
2021,06,26,00,20,22.20
2021,06,26,00,21,22.20
2021,06,26,00,22,22.20
2021,06,26,00,23,22.30
2021,06,26,00,24,22.20
2021,06,26,00,25,22.20
2021,06,26,00,26,22.30
2021,06,26,00,27,22.20
2021,06,26,00,28,22.20
2021,06,26,00,29,22.20
2021,06,26,00,30,22.20
2021,06,26,00,31,22.20
2021,06,26,00,32,22.20
2021,06,26,00,33,22.20
2021,06,26,00,34,22.10
2021,06,26,00,35,22.10
2021,06,26,00,36,22.10
2021,06,26,00,37,22.10
2021,06,26,00,38,22.10
2021,06,26,00,39,22.10
2021,06,26,00,40,22.10
2021,06,26,00,41,22.00
2021,06,26,00,42,22.00
2021,06,26,00,43,22.00
2021,06,26,00,44,22.00
2021,06,26,00,45,21.90
2021,06,26,00,46,21.90
2021,06,26,00,47,21.90
2021,06,26,00,48,21.80
2021,06,26,00,49,21.80
2021,06,26,00,50,21.80
2021,06,26,00,51,21.80
2021,06,26,00,52,21.80
2021,06,26,00,53,21.70
2021,06,26,00,54,21.70
2021,06,26,00,55,21.70
2021,06,26,00,56,21.70
2021,06,26,00,57,21.70
2021,06,26,00,58,21.70
2021,06,26,00,59,21.70
2021,06,26,01,00,21.70
2021,06,26,01,01,21.60
2021,06,26,01,02,21.60
2021,06,26,01,03,21.60
2021,06,26,01,04,21.60
2021,06,26,01,05,21.60
2021,06,26,01,06,21.60
2021,06,26,01,07,21.60
2021,06,26,01,08,21.60
2021,06,26,01,09,21.60
2021,06,26,01,10,21.50
2021,06,26,01,11,21.50
2021,06,26,01,12,21.50
2021,06,26,01,13,21.50
2021,06,26,01,14,21.40
2021,06,26,01,15,21.40
2021,06,26,01,16,21.40
2021,06,26,01,17,21.40
2021,06,26,01,18,21.40
2021,06,26,01,19,21.40
2021,06,26,01,20,21.40
2021,06,26,01,21,21.40
2021,06,26,01,22,21.40
2021,06,26,01,23,21.40
2021,06,26,01,24,21.40
2021,06,26,01,25,21.40
2021,06,26,01,26,21.50
2021,06,26,01,27,21.50
2021,06,26,01,28,21.50
2021,06,26,01,29,21.50
2021,06,26,01,30,21.50
2021,06,26,01,31,21.50
2021,06,26,01,32,21.50
2021,06,26,01,33,21.50
2021,06,26,01,34,21.50
2021,06,26,01,35,21.40
2021,06,26,01,36,21.40
2021,06,26,01,37,21.40
2021,06,26,01,38,21.40
2021,06,26,01,39,21.30
2021,06,26,01,40,21.30
2021,06,26,01,41,21.30
2021,06,26,01,42,21.30
2021,06,26,01,43,21.30
2021,06,26,01,44,21.20
2021,06,26,01,45,21.20
2021,06,26,01,46,21.20
2021,06,26,01,47,21.20
2021,06,26,01,48,21.20
2021,06,26,01,49,21.20
2021,06,26,01,50,21.20
2021,06,26,01,51,21.20
2021,06,26,01,52,21.20
2021,06,26,01,53,21.20
2021,06,26,01,54,21.20
2021,06,26,01,55,21.10
2021,06,26,01,56,21.10
2021,06,26,01,57,21.10
2021,06,26,01,58,21.00
2021,06,26,01,59,21.10
2021,06,26,02,00,21.00
2021,06,26,02,01,21.00
2021,06,26,02,02,21.00
2021,06,26,02,03,21.00
2021,06,26,02,04,21.00
2021,06,26,02,05,21.00
2021,06,26,02,06,21.00
2021,06,26,02,07,21.00
2021,06,26,02,08,21.00
2021,06,26,02,09,21.00
2021,06,26,02,10,21.00
2021,06,26,02,11,21.00
2021,06,26,02,12,21.00
2021,06,26,02,13,21.00
2021,06,26,02,14,21.00
2021,06,26,02,15,20.90
2021,06,26,02,16,20.90
2021,06,26,02,17,20.90
2021,06,26,02,18,20.90
2021,06,26,02,19,20.90
2021,06,26,02,20,20.90
2021,06,26,02,21,20.80
2021,06,26,02,22,20.80
2021,06,26,02,23,20.80
2021,06,26,02,24,20.80
2021,06,26,02,25,20.80
2021,06,26,02,26,20.70
2021,06,26,02,27,20.70
2021,06,26,02,28,20.70
2021,06,26,02,29,20.70
2021,06,26,02,30,20.60
2021,06,26,02,31,20.60
2021,06,26,02,32,20.60
2021,06,26,02,33,20.60
2021,06,26,02,34,20.60
2021,06,26,02,35,20.60
2021,06,26,02,36,20.50
2021,06,26,02,37,20.50
2021,06,26,02,38,20.50
2021,06,26,02,39,20.50
2021,06,26,02,40,20.50
2021,06,26,02,41,20.50
2021,06,26,02,42,20.50
2021,06,26,02,43,20.50
2021,06,26,02,44,20.50
2021,06,26,02,45,20.50
2021,06,26,02,46,20.50
2021,06,26,02,47,20.60
2021,06,26,02,48,20.50
2021,06,26,02,49,20.60
2021,06,26,02,50,20.50
2021,06,26,02,51,20.50
2021,06,26,02,52,20.50
2021,06,26,02,53,20.50
2021,06,26,02,54,20.50
2021,06,26,02,55,20.40
2021,06,26,02,56,20.40
2021,06,26,02,57,20.40
2021,06,26,02,58,20.40
2021,06,26,02,59,20.40
2021,06,26,03,00,20.40
2021,06,26,03,01,20.30
2021,06,26,03,02,20.30
2021,06,26,03,03,20.30
2021,06,26,03,04,20.30
2021,06,26,03,05,20.30
2021,06,26,03,06,20.30
2021,06,26,03,07,20.30
2021,06,26,03,08,20.30
2021,06,26,03,09,20.30
2021,06,26,03,10,20.30
2021,06,26,03,11,20.30
2021,06,26,03,12,20.30
2021,06,26,03,13,20.30
2021,06,26,03,14,20.30
2021,06,26,03,15,20.30
2021,06,26,03,16,20.30
2021,06,26,03,17,20.30
2021,06,26,03,18,20.30
2021,06,26,03,19,20.30
2021,06,26,03,20,20.30
2021,06,26,03,21,20.30
2021,06,26,03,22,20.30
2021,06,26,03,23,20.30
2021,06,26,03,24,20.30
2021,06,26,03,25,20.20
2021,06,26,03,26,20.20
2021,06,26,03,27,20.20
2021,06,26,03,28,20.20
2021,06,26,03,29,20.20
2021,06,26,03,30,20.20
2021,06,26,03,31,20.20
2021,06,26,03,32,20.20
2021,06,26,03,33,20.20
2021,06,26,03,34,20.20
2021,06,26,03,35,20.20
2021,06,26,03,36,20.20
2021,06,26,03,37,20.20
2021,06,26,03,38,20.10
2021,06,26,03,39,20.10
2021,06,26,03,40,20.10
2021,06,26,03,41,20.10
2021,06,26,03,42,20.10
2021,06,26,03,43,20.00
2021,06,26,03,44,20.00
2021,06,26,03,45,20.00
2021,06,26,03,46,19.90
2021,06,26,03,47,19.90
2021,06,26,03,48,19.90
2021,06,26,03,49,19.90
2021,06,26,03,50,19.90
2021,06,26,03,51,19.90
2021,06,26,03,52,19.90
2021,06,26,03,53,19.80
2021,06,26,03,54,19.80
2021,06,26,03,55,19.80
2021,06,26,03,56,19.80
2021,06,26,03,57,19.80
2021,06,26,03,58,19.70
2021,06,26,03,59,19.70
2021,06,26,04,00,19.70
2021,06,26,04,01,19.70
2021,06,26,04,02,19.70
2021,06,26,04,03,19.70
2021,06,26,04,04,19.70
2021,06,26,04,05,19.70
2021,06,26,04,06,19.70
2021,06,26,04,07,19.70
2021,06,26,04,08,19.70
2021,06,26,04,09,19.70
2021,06,26,04,10,19.70
2021,06,26,04,11,19.70
2021,06,26,04,12,19.70
2021,06,26,04,13,19.70
2021,06,26,04,14,19.70
2021,06,26,04,15,19.70
2021,06,26,04,16,19.70
2021,06,26,04,17,19.70
2021,06,26,04,18,19.70
2021,06,26,04,19,19.70
2021,06,26,04,20,19.70
2021,06,26,04,21,19.70
2021,06,26,04,22,19.70
2021,06,26,04,23,19.70
2021,06,26,04,24,19.70
2021,06,26,04,25,19.70
2021,06,26,04,26,19.70
2021,06,26,04,27,19.60
2021,06,26,04,28,19.60
2021,06,26,04,29,19.60
2021,06,26,04,30,19.60
2021,06,26,04,31,19.50
2021,06,26,04,32,19.50
2021,06,26,04,33,19.50
2021,06,26,04,34,19.40
2021,06,26,04,35,19.40
2021,06,26,04,36,19.40
2021,06,26,04,37,19.40
2021,06,26,04,38,19.40
2021,06,26,04,39,19.40
2021,06,26,04,40,19.40
2021,06,26,04,41,19.40
2021,06,26,04,42,19.40
2021,06,26,04,43,19.40
2021,06,26,04,44,19.40
2021,06,26,04,45,19.40
2021,06,26,04,46,19.40
2021,06,26,04,47,19.40
2021,06,26,04,48,19.40
2021,06,26,04,49,19.40
2021,06,26,04,50,19.40
2021,06,26,04,51,19.40
2021,06,26,04,52,19.40
2021,06,26,04,53,19.40
2021,06,26,04,54,19.30
2021,06,26,04,55,19.40
2021,06,26,04,56,19.30
2021,06,26,04,57,19.30
2021,06,26,04,58,19.30
2021,06,26,04,59,19.30
2021,06,26,05,00,19.30
2021,06,26,05,01,19.30
2021,06,26,05,02,19.30
2021,06,26,05,03,19.30
2021,06,26,05,04,19.30
2021,06,26,05,05,19.30
2021,06,26,05,06,19.20
2021,06,26,05,07,19.20
2021,06,26,05,08,19.20
2021,06,26,05,09,19.20
2021,06,26,05,10,19.20
2021,06,26,05,11,19.20
2021,06,26,05,12,19.20
2021,06,26,05,13,19.20
2021,06,26,05,14,19.20
2021,06,26,05,15,19.20
2021,06,26,05,16,19.10
2021,06,26,05,17,19.10
2021,06,26,05,18,19.10
2021,06,26,05,19,19.10
2021,06,26,05,20,19.10
2021,06,26,05,21,19.10
2021,06,26,05,22,19.10
2021,06,26,05,23,19.10
2021,06,26,05,24,19.10
2021,06,26,05,25,19.10
2021,06,26,05,26,19.10
2021,06,26,05,27,19.10
2021,06,26,05,28,19.10
2021,06,26,05,29,19.10
2021,06,26,05,30,19.10
2021,06,26,05,31,19.10
2021,06,26,05,32,19.10
2021,06,26,05,33,19.10
2021,06,26,05,34,19.10
2021,06,26,05,35,19.10
2021,06,26,05,36,19.10
2021,06,26,05,37,19.10
2021,06,26,05,38,19.10
2021,06,26,05,39,19.10
2021,06,26,05,40,19.10
2021,06,26,05,41,19.10
2021,06,26,05,42,19.10
2021,06,26,05,43,19.10
2021,06,26,05,44,19.10
2021,06,26,05,45,19.10
2021,06,26,05,46,19.10
2021,06,26,05,47,19.10
2021,06,26,05,48,19.10
2021,06,26,05,49,19.10
2021,06,26,05,50,19.00
2021,06,26,05,51,19.00
2021,06,26,05,52,19.00
2021,06,26,05,53,19.00
2021,06,26,05,54,19.00
2021,06,26,05,55,19.00
2021,06,26,05,56,18.90
2021,06,26,05,57,18.90
2021,06,26,05,58,18.90
2021,06,26,05,59,18.90
2021,06,26,06,00,18.90
2021,06,26,06,01,18.90
2021,06,26,06,02,18.90
2021,06,26,06,03,18.90
2021,06,26,06,04,18.90
2021,06,26,06,05,18.90
2021,06,26,06,06,18.90
2021,06,26,06,07,18.90
2021,06,26,06,08,18.90
2021,06,26,06,09,19.00
2021,06,26,06,10,19.10
2021,06,26,06,11,19.10
2021,06,26,06,12,19.10
2021,06,26,06,13,19.20
2021,06,26,06,14,19.20
2021,06,26,06,15,19.20
2021,06,26,06,16,19.30
2021,06,26,06,17,19.30
2021,06,26,06,18,19.30
2021,06,26,06,19,19.30
2021,06,26,06,20,19.30
2021,06,26,06,21,19.30
2021,06,26,06,22,19.30
2021,06,26,06,23,19.30
2021,06,26,06,24,19.40
2021,06,26,06,25,19.40
2021,06,26,06,26,19.40
2021,06,26,06,27,19.40
2021,06,26,06,28,19.40
2021,06,26,06,29,19.50
2021,06,26,06,30,19.50
2021,06,26,06,31,19.50
2021,06,26,06,32,19.50
2021,06,26,06,33,19.60
2021,06,26,06,34,19.60
2021,06,26,06,35,19.70
2021,06,26,06,36,19.70
2021,06,26,06,37,19.70
2021,06,26,06,38,19.70
2021,06,26,06,39,19.80
2021,06,26,06,40,19.80
2021,06,26,06,41,19.80
2021,06,26,06,42,19.80
2021,06,26,06,43,19.90
2021,06,26,06,44,19.90
2021,06,26,06,45,19.90
2021,06,26,06,46,20.00
2021,06,26,06,47,20.00
2021,06,26,06,48,20.00
2021,06,26,06,49,20.10
2021,06,26,06,50,20.10
2021,06,26,06,51,20.20
2021,06,26,06,52,20.30
2021,06,26,06,53,20.30
2021,06,26,06,54,20.40
2021,06,26,06,55,20.40
2021,06,26,06,56,20.50
2021,06,26,06,57,20.60
2021,06,26,06,58,20.70
2021,06,26,06,59,20.80
2021,06,26,07,00,20.80
2021,06,26,07,01,20.90
2021,06,26,07,02,21.00
2021,06,26,07,03,21.00
2021,06,26,07,04,21.10
2021,06,26,07,05,21.20
2021,06,26,07,06,21.20
2021,06,26,07,07,21.30
2021,06,26,07,08,21.30
2021,06,26,07,09,21.40
2021,06,26,07,10,21.40
2021,06,26,07,11,21.40
2021,06,26,07,12,21.60
2021,06,26,07,13,21.70
2021,06,26,07,14,21.70
2021,06,26,07,15,21.80
2021,06,26,07,16,21.90
2021,06,26,07,17,22.00
2021,06,26,07,18,22.10
2021,06,26,07,19,22.20
2021,06,26,07,20,22.20
2021,06,26,07,21,22.30
2021,06,26,07,22,22.30
2021,06,26,07,23,22.40
2021,06,26,07,24,22.50
2021,06,26,07,25,22.60
2021,06,26,07,26,22.70
2021,06,26,07,27,22.80
2021,06,26,07,28,22.90
2021,06,26,07,29,23.10
2021,06,26,07,30,23.30
2021,06,26,07,31,23.40
2021,06,26,07,32,23.60
2021,06,26,07,33,23.80
2021,06,26,07,34,24.00
2021,06,26,07,35,24.20
2021,06,26,07,36,24.30
2021,06,26,07,37,24.50
2021,06,26,07,38,24.80
2021,06,26,07,39,25.10
2021,06,26,07,40,25.40
2021,06,26,07,41,25.60
2021,06,26,07,42,25.70
2021,06,26,07,43,25.80
2021,06,26,07,44,25.80
2021,06,26,07,45,25.90
2021,06,26,07,46,25.90
2021,06,26,07,47,26.00
2021,06,26,07,48,26.10
2021,06,26,07,49,26.30
2021,06,26,07,50,26.40
2021,06,26,07,51,26.50
2021,06,26,07,52,26.70
2021,06,26,07,53,26.80
2021,06,26,07,54,27.10
2021,06,26,07,55,27.30
2021,06,26,07,56,27.50
2021,06,26,07,57,27.70
2021,06,26,07,58,27.80
2021,06,26,07,59,28.00
2021,06,26,08,00,28.10
2021,06,26,08,01,28.20
2021,06,26,08,02,28.40
2021,06,26,08,03,28.50
2021,06,26,08,04,28.60
2021,06,26,08,05,28.70
2021,06,26,08,06,28.80
2021,06,26,08,07,28.80
2021,06,26,08,08,28.90
2021,06,26,08,09,28.90
2021,06,26,08,10,29.00
2021,06,26,08,11,29.10
2021,06,26,08,12,29.20
2021,06,26,08,13,29.20
2021,06,26,08,14,29.20
2021,06,26,08,15,29.30
2021,06,26,08,16,29.30
2021,06,26,08,17,29.40
2021,06,26,08,18,29.40
2021,06,26,08,19,29.50
2021,06,26,08,20,29.60
2021,06,26,08,21,29.70
2021,06,26,08,22,29.80
2021,06,26,08,23,29.80
2021,06,26,08,24,29.90
2021,06,26,08,25,29.90
2021,06,26,08,26,29.80
2021,06,26,08,27,29.80
2021,06,26,08,28,29.80
2021,06,26,08,29,29.80
2021,06,26,08,30,29.80
2021,06,26,08,31,29.80
2021,06,26,08,32,29.80
2021,06,26,08,33,29.80
2021,06,26,08,34,29.80
2021,06,26,08,35,29.90
2021,06,26,08,36,29.90
2021,06,26,08,37,30.00
2021,06,26,08,38,30.00
2021,06,26,08,39,30.10
2021,06,26,08,40,30.10
2021,06,26,08,41,30.00
2021,06,26,08,42,30.00
2021,06,26,08,43,29.90
2021,06,26,08,44,30.00
2021,06,26,08,45,30.00
2021,06,26,08,46,30.10
2021,06,26,08,47,30.10
2021,06,26,08,48,30.20
2021,06,26,08,49,30.30
2021,06,26,08,50,30.40
2021,06,26,08,51,30.50
2021,06,26,08,52,30.60
2021,06,26,08,53,30.70
2021,06,26,08,54,30.80
2021,06,26,08,55,30.80
2021,06,26,08,56,30.90
2021,06,26,08,57,30.90
2021,06,26,08,58,31.00
2021,06,26,08,59,31.00
2021,06,26,09,00,31.10
2021,06,26,09,01,31.10
2021,06,26,09,02,31.10
2021,06,26,09,03,31.10
2021,06,26,09,04,31.20
2021,06,26,09,05,31.20
2021,06,26,09,06,31.20
2021,06,26,09,07,31.30
2021,06,26,09,08,31.30
2021,06,26,09,09,31.40
2021,06,26,09,10,31.50
2021,06,26,09,11,31.60
2021,06,26,09,12,31.60
2021,06,26,09,13,31.60
2021,06,26,09,14,31.70
2021,06,26,09,15,31.70
2021,06,26,09,16,31.60
2021,06,26,09,17,31.60
2021,06,26,09,18,31.50
2021,06,26,09,19,31.30
2021,06,26,09,20,31.30
2021,06,26,09,21,31.30
2021,06,26,09,22,31.30
2021,06,26,09,23,31.20
2021,06,26,09,24,31.20
2021,06,26,09,25,31.20
2021,06,26,09,26,31.30
2021,06,26,09,27,31.30
2021,06,26,09,28,31.30
2021,06,26,09,29,31.40
2021,06,26,09,30,31.40
2021,06,26,09,31,31.40
2021,06,26,09,32,31.40
2021,06,26,09,33,31.10
2021,06,26,09,34,30.80
2021,06,26,09,35,30.70
2021,06,26,09,36,30.60
2021,06,26,09,37,30.50
2021,06,26,09,38,30.40
2021,06,26,09,39,30.40
2021,06,26,09,40,30.30
2021,06,26,09,41,30.30
2021,06,26,09,42,30.30
2021,06,26,09,43,30.20
2021,06,26,09,44,30.00
2021,06,26,09,45,29.80
2021,06,26,09,46,29.80
2021,06,26,09,47,29.80
2021,06,26,09,48,29.80
2021,06,26,09,49,29.80
2021,06,26,09,50,29.80
2021,06,26,09,51,29.80
2021,06,26,09,52,29.80
2021,06,26,09,53,29.80
2021,06,26,09,54,29.90
2021,06,26,09,55,30.00
2021,06,26,09,56,30.10
2021,06,26,09,57,30.10
2021,06,26,09,58,30.30
2021,06,26,09,59,30.30
2021,06,26,10,00,30.40
2021,06,26,10,01,30.50
2021,06,26,10,02,30.60
2021,06,26,10,03,30.50
2021,06,26,10,04,30.30
2021,06,26,10,05,30.10
2021,06,26,10,06,30.10
2021,06,26,10,07,30.20
2021,06,26,10,08,30.20
2021,06,26,10,09,30.30
2021,06,26,10,10,30.30
2021,06,26,10,11,30.40
2021,06,26,10,12,30.40
2021,06,26,10,13,30.60
2021,06,26,10,14,30.70
2021,06,26,10,15,30.80
2021,06,26,10,16,30.70
2021,06,26,10,17,30.70
2021,06,26,10,18,30.70
2021,06,26,10,19,30.70
2021,06,26,10,20,30.70
2021,06,26,10,21,30.70
2021,06,26,10,22,30.80
2021,06,26,10,23,30.90
2021,06,26,10,24,30.90
2021,06,26,10,25,31.00
2021,06,26,10,26,31.10
2021,06,26,10,27,31.20
2021,06,26,10,28,31.30
2021,06,26,10,29,31.30
2021,06,26,10,30,31.40
2021,06,26,10,31,31.40
2021,06,26,10,32,31.60
2021,06,26,10,33,31.70
2021,06,26,10,34,31.80
2021,06,26,10,35,31.80
2021,06,26,10,36,31.70
2021,06,26,10,37,31.70
2021,06,26,10,38,31.70
2021,06,26,10,39,31.60
2021,06,26,10,40,31.60
2021,06,26,10,41,31.70
2021,06,26,10,42,31.80
2021,06,26,10,43,31.80
2021,06,26,10,44,31.80
2021,06,26,10,45,31.80
2021,06,26,10,46,31.90
2021,06,26,10,47,31.90
2021,06,26,10,48,32.00
2021,06,26,10,49,32.00
2021,06,26,10,50,32.10
2021,06,26,10,51,32.20
2021,06,26,10,52,32.30
2021,06,26,10,53,32.50
2021,06,26,10,54,32.60
2021,06,26,10,55,32.60
2021,06,26,10,56,32.40
2021,06,26,10,57,32.30
2021,06,26,10,58,32.20
2021,06,26,10,59,32.20
2021,06,26,11,00,32.10
2021,06,26,11,01,32.20
2021,06,26,11,02,32.20
2021,06,26,11,03,32.30
2021,06,26,11,04,32.30
2021,06,26,11,05,32.30
2021,06,26,11,06,32.40
2021,06,26,11,07,32.30
2021,06,26,11,08,32.40
2021,06,26,11,09,32.40
2021,06,26,11,10,32.40
2021,06,26,11,11,32.40
2021,06,26,11,12,32.40
2021,06,26,11,13,32.50
2021,06,26,11,14,32.60
2021,06,26,11,15,32.70
2021,06,26,11,16,32.90
2021,06,26,11,17,33.00
2021,06,26,11,18,33.10
2021,06,26,11,19,33.20
2021,06,26,11,20,33.20
2021,06,26,11,21,33.30
2021,06,26,11,22,33.40
2021,06,26,11,23,33.30
2021,06,26,11,24,33.30
2021,06,26,11,25,33.30
2021,06,26,11,26,33.20
2021,06,26,11,27,33.10
2021,06,26,11,28,33.10
2021,06,26,11,29,33.10
2021,06,26,11,30,33.10
2021,06,26,11,31,33.00
2021,06,26,11,32,33.00
2021,06,26,11,33,33.00
2021,06,26,11,34,33.00
2021,06,26,11,35,33.10
2021,06,26,11,36,33.20
2021,06,26,11,37,33.30
2021,06,26,11,38,33.40
2021,06,26,11,39,33.40
2021,06,26,11,40,33.40
2021,06,26,11,41,33.50
2021,06,26,11,42,33.60
2021,06,26,11,43,33.60
2021,06,26,11,44,33.60
2021,06,26,11,45,33.40
2021,06,26,11,46,33.30
2021,06,26,11,47,33.30
2021,06,26,11,48,33.40
2021,06,26,11,49,33.60
2021,06,26,11,50,33.70
2021,06,26,11,51,33.80
2021,06,26,11,52,33.70
2021,06,26,11,53,33.70
2021,06,26,11,54,33.60
2021,06,26,11,55,33.60
2021,06,26,11,56,33.50
2021,06,26,11,57,33.40
2021,06,26,11,58,33.50
2021,06,26,11,59,33.70
2021,06,26,12,00,33.60
2021,06,26,12,01,33.60
2021,06,26,12,02,33.60
2021,06,26,12,03,33.60
2021,06,26,12,04,33.60
2021,06,26,12,05,33.50
2021,06,26,12,06,33.50
2021,06,26,12,07,33.60
2021,06,26,12,08,33.60
2021,06,26,12,09,33.60
2021,06,26,12,10,33.70
2021,06,26,12,11,33.90
2021,06,26,12,12,34.20
2021,06,26,12,13,34.30
2021,06,26,12,14,34.40
2021,06,26,12,15,34.30
2021,06,26,12,16,34.30
2021,06,26,12,17,34.40
2021,06,26,12,18,34.50
2021,06,26,12,19,34.70
2021,06,26,12,20,34.80
2021,06,26,12,21,34.80
2021,06,26,12,22,34.90
2021,06,26,12,23,34.90
2021,06,26,12,24,34.80
2021,06,26,12,25,34.80
2021,06,26,12,26,34.80
2021,06,26,12,27,34.90
2021,06,26,12,28,35.00
2021,06,26,12,29,35.20
2021,06,26,12,30,35.20
2021,06,26,12,31,35.10
2021,06,26,12,32,35.10
2021,06,26,12,33,35.20
2021,06,26,12,34,35.10
2021,06,26,12,35,34.80
2021,06,26,12,36,34.60
2021,06,26,12,37,34.50
2021,06,26,12,38,34.50
2021,06,26,12,39,34.60
2021,06,26,12,40,34.80
2021,06,26,12,41,34.90
2021,06,26,12,42,35.00
2021,06,26,12,43,34.90
2021,06,26,12,44,34.70
2021,06,26,12,45,34.40
2021,06,26,12,46,34.30
2021,06,26,12,47,34.30
2021,06,26,12,48,34.30
2021,06,26,12,49,34.30
2021,06,26,12,50,34.20
2021,06,26,12,51,34.20
2021,06,26,12,52,34.30
2021,06,26,12,53,34.60
2021,06,26,12,54,34.70
2021,06,26,12,55,34.90
2021,06,26,12,56,34.90
2021,06,26,12,57,34.80
2021,06,26,12,58,34.70
2021,06,26,12,59,34.70
2021,06,26,13,00,34.70
2021,06,26,13,01,34.80
2021,06,26,13,02,34.90
2021,06,26,13,03,34.90
2021,06,26,13,04,34.90
2021,06,26,13,05,34.90
2021,06,26,13,06,35.00
2021,06,26,13,07,34.90
2021,06,26,13,08,34.80
2021,06,26,13,09,34.90
2021,06,26,13,10,35.00
2021,06,26,13,11,35.10
2021,06,26,13,12,35.30
2021,06,26,13,13,35.50
2021,06,26,13,14,35.60
2021,06,26,13,15,35.70
2021,06,26,13,16,35.80
2021,06,26,13,17,35.70
2021,06,26,13,18,35.60
2021,06,26,13,19,35.60
2021,06,26,13,20,35.70
2021,06,26,13,21,35.90
2021,06,26,13,22,36.00
2021,06,26,13,23,36.10
2021,06,26,13,24,36.10
2021,06,26,13,25,36.20
2021,06,26,13,26,36.20
2021,06,26,13,27,36.00
2021,06,26,13,28,35.90
2021,06,26,13,29,35.90
2021,06,26,13,30,36.00
2021,06,26,13,31,35.80
2021,06,26,13,32,35.80
2021,06,26,13,33,35.80
2021,06,26,13,34,35.90
2021,06,26,13,35,35.80
2021,06,26,13,36,35.60
2021,06,26,13,37,35.40
2021,06,26,13,38,35.20
2021,06,26,13,39,35.10
2021,06,26,13,40,35.00
2021,06,26,13,41,35.00
2021,06,26,13,42,35.10
2021,06,26,13,43,35.30
2021,06,26,13,44,35.40
2021,06,26,13,45,35.40
2021,06,26,13,46,35.40
2021,06,26,13,47,35.40
2021,06,26,13,48,35.40
2021,06,26,13,49,35.50
2021,06,26,13,50,35.70
2021,06,26,13,51,35.80
2021,06,26,13,52,35.90
2021,06,26,13,53,35.90
2021,06,26,13,54,35.90
2021,06,26,13,55,35.70
2021,06,26,13,56,35.50
2021,06,26,13,57,35.40
2021,06,26,13,58,35.30
2021,06,26,13,59,35.20
2021,06,26,14,00,35.20
2021,06,26,14,01,35.10
2021,06,26,14,02,35.00
2021,06,26,14,03,34.80
2021,06,26,14,04,34.70
2021,06,26,14,05,34.60
2021,06,26,14,06,34.70
2021,06,26,14,07,34.70
2021,06,26,14,08,34.80
2021,06,26,14,09,34.90
2021,06,26,14,10,34.90
2021,06,26,14,11,35.00
2021,06,26,14,12,35.00
2021,06,26,14,13,35.10
2021,06,26,14,14,35.10
2021,06,26,14,15,35.10
2021,06,26,14,16,35.10
2021,06,26,14,17,35.10
2021,06,26,14,18,35.10
2021,06,26,14,19,35.00
2021,06,26,14,20,35.00
2021,06,26,14,21,35.00
2021,06,26,14,22,35.10
2021,06,26,14,23,35.00
2021,06,26,14,24,35.10
2021,06,26,14,25,35.20
2021,06,26,14,26,35.40
2021,06,26,14,27,35.50
2021,06,26,14,28,35.80
2021,06,26,14,29,36.10
2021,06,26,14,30,36.40
2021,06,26,14,31,36.70
2021,06,26,14,32,37.00
2021,06,26,14,33,37.10
2021,06,26,14,34,37.20
2021,06,26,14,35,37.20
2021,06,26,14,36,37.10
2021,06,26,14,37,37.20
2021,06,26,14,38,37.10
2021,06,26,14,39,36.90
2021,06,26,14,40,36.70
2021,06,26,14,41,36.50
2021,06,26,14,42,36.10
2021,06,26,14,43,36.00
2021,06,26,14,44,35.80
2021,06,26,14,45,35.70
2021,06,26,14,46,35.70
2021,06,26,14,47,35.80
2021,06,26,14,48,35.80
2021,06,26,14,49,35.90
2021,06,26,14,50,36.00
2021,06,26,14,51,36.20
2021,06,26,14,52,36.30
2021,06,26,14,53,36.50
2021,06,26,14,54,36.70
2021,06,26,14,55,36.80
2021,06,26,14,56,36.80
2021,06,26,14,57,36.70
2021,06,26,14,58,36.60
2021,06,26,14,59,36.60
2021,06,26,15,00,36.60
2021,06,26,15,01,36.50
2021,06,26,15,02,36.40
2021,06,26,15,03,36.20
2021,06,26,15,04,36.00
2021,06,26,15,05,35.80
2021,06,26,15,06,35.80
2021,06,26,15,07,35.90
2021,06,26,15,08,36.10
2021,06,26,15,09,36.20
2021,06,26,15,10,36.20
2021,06,26,15,11,36.30
2021,06,26,15,12,36.20
2021,06,26,15,13,36.20
2021,06,26,15,14,36.20
2021,06,26,15,15,36.30
2021,06,26,15,16,36.30
2021,06,26,15,17,36.10
2021,06,26,15,18,36.10
2021,06,26,15,19,36.00
2021,06,26,15,20,35.90
2021,06,26,15,21,35.90
2021,06,26,15,22,36.10
2021,06,26,15,23,36.30
2021,06,26,15,24,36.40
2021,06,26,15,25,36.50
2021,06,26,15,26,36.50
2021,06,26,15,27,36.40
2021,06,26,15,28,36.30
2021,06,26,15,29,36.10
2021,06,26,15,30,35.90
2021,06,26,15,31,35.90
2021,06,26,15,32,35.90
2021,06,26,15,33,36.00
2021,06,26,15,34,36.10
2021,06,26,15,35,36.20
2021,06,26,15,36,36.20
2021,06,26,15,37,36.30
2021,06,26,15,38,36.40
2021,06,26,15,39,36.50
2021,06,26,15,40,36.60
2021,06,26,15,41,36.80
2021,06,26,15,42,36.70
2021,06,26,15,43,36.40
2021,06,26,15,44,36.30
2021,06,26,15,45,36.20
2021,06,26,15,46,36.20
2021,06,26,15,47,36.20
2021,06,26,15,48,36.30
2021,06,26,15,49,36.50
2021,06,26,15,50,36.70
2021,06,26,15,51,36.90
2021,06,26,15,52,37.10
2021,06,26,15,53,37.10
2021,06,26,15,54,37.00
2021,06,26,15,55,36.90
2021,06,26,15,56,36.70
2021,06,26,15,57,36.70
2021,06,26,15,58,36.60
2021,06,26,15,59,36.60
2021,06,26,16,00,36.50
2021,06,26,16,01,36.40
2021,06,26,16,02,36.30
2021,06,26,16,03,36.20
2021,06,26,16,04,36.30
2021,06,26,16,05,36.40
2021,06,26,16,06,36.40
2021,06,26,16,07,36.50
2021,06,26,16,08,36.50
2021,06,26,16,09,36.40
2021,06,26,16,10,36.40
2021,06,26,16,11,36.30
2021,06,26,16,12,36.30
2021,06,26,16,13,36.30
2021,06,26,16,14,36.50
2021,06,26,16,15,36.50
2021,06,26,16,16,36.50
2021,06,26,16,17,36.60
2021,06,26,16,18,36.60
2021,06,26,16,19,36.60
2021,06,26,16,20,36.70
2021,06,26,16,21,36.80
2021,06,26,16,22,37.00
2021,06,26,16,23,37.10
2021,06,26,16,24,37.20
2021,06,26,16,25,37.40
2021,06,26,16,26,37.40
2021,06,26,16,27,37.20
2021,06,26,16,28,37.00
2021,06,26,16,29,36.90
2021,06,26,16,30,36.80
2021,06,26,16,31,36.70
2021,06,26,16,32,36.80
2021,06,26,16,33,36.80
2021,06,26,16,34,36.90
2021,06,26,16,35,36.90
2021,06,26,16,36,36.80
2021,06,26,16,37,36.80
2021,06,26,16,38,36.90
2021,06,26,16,39,37.00
2021,06,26,16,40,37.10
2021,06,26,16,41,37.10
2021,06,26,16,42,37.20
2021,06,26,16,43,37.20
2021,06,26,16,44,37.30
2021,06,26,16,45,37.30
2021,06,26,16,46,37.40
2021,06,26,16,47,37.40
2021,06,26,16,48,37.40
2021,06,26,16,49,37.40
2021,06,26,16,50,37.40
2021,06,26,16,51,37.40
2021,06,26,16,52,37.40
2021,06,26,16,53,37.40
2021,06,26,16,54,37.20
2021,06,26,16,55,37.10
2021,06,26,16,56,37.10
2021,06,26,16,57,37.10
2021,06,26,16,58,37.10
2021,06,26,16,59,37.00
2021,06,26,17,00,36.90
2021,06,26,17,01,36.90
2021,06,26,17,02,37.00
2021,06,26,17,03,37.00
2021,06,26,17,04,37.10
2021,06,26,17,05,37.10
2021,06,26,17,06,37.10
2021,06,26,17,07,37.20
2021,06,26,17,08,37.20
2021,06,26,17,09,37.30
2021,06,26,17,10,37.30
2021,06,26,17,11,37.40
2021,06,26,17,12,37.40
2021,06,26,17,13,37.40
2021,06,26,17,14,37.50
2021,06,26,17,15,37.50
2021,06,26,17,16,37.60
2021,06,26,17,17,37.60
2021,06,26,17,18,37.60
2021,06,26,17,19,37.60